TimeCDT,TemperatureF,Dew PointF,Humidity,Sea Level PressureIn,VisibilityMPH,Wind Direction,Wind SpeedMPH,Gust SpeedMPH,PrecipitationIn,Events,Conditions,WindDirDegrees,DateUTC
12:53 AM,66.9,66.0,97,30.04,10.0,Calm,Calm,-,N/A,,Clear,0,2013-07-26 05:53:00
1:53 AM,66.9,66.0,97,30.05,8.0,Calm,Calm,-,N/A,,Clear,0,2013-07-26 06:53:00
2:53 AM,66.0,64.9,96,30.04,8.0,Calm,Calm,-,N/A,,Clear,0,2013-07-26 07:53:00
3:53 AM,66.0,64.9,96,30.05,3.0,Calm,Calm,-,N/A,,Clear,0,2013-07-26 08:53:00
3:58 AM,64.4,64.4,100,30.05,1.8,Calm,Calm,-,N/A,,Clear,0,2013-07-26 08:58:00
4:11 AM,64.4,64.4,100,30.05,3.0,Calm,Calm,-,N/A,,Clear,0,2013-07-26 09:11:00
4:35 AM,62.6,62.6,100,30.04,1.5,Calm,Calm,-,N/A,,Clear,0,2013-07-26 09:35:00
4:49 AM,62.6,62.6,100,30.04,0.8,Calm,Calm,-,N/A,,Mist,0,2013-07-26 09:49:00
4:53 AM,64.0,63.0,96,30.04,0.5,Calm,Calm,-,N/A,Fog,Fog,0,2013-07-26 09:53:00
4:59 AM,62.6,62.6,100,30.04,0.2,Calm,Calm,-,N/A,Fog,Fog,0,2013-07-26 09:59:00
5:09 AM,62.6,62.6,100,30.05,0.8,Calm,Calm,-,N/A,,Mist,0,2013-07-26 10:09:00
5:13 AM,62.6,60.8,94,30.05,2.0,North,3.5,-,N/A,,Mostly Cloudy,350,2013-07-26 10:13:00
5:16 AM,62.6,60.8,94,30.05,3.0,Calm,Calm,-,N/A,,Scattered Clouds,0,2013-07-26 10:16:00
5:25 AM,62.6,60.8,94,30.05,1.5,Calm,Calm,-,N/A,,Partly Cloudy,0,2013-07-26 10:25:00
5:27 AM,62.6,62.6,100,30.05,0.8,Calm,Calm,-,N/A,,Mist,0,2013-07-26 10:27:00
5:37 AM,64.4,64.4,100,30.05,1.0,Calm,Calm,-,N/A,,Clear,0,2013-07-26 10:37:00
5:43 AM,64.4,62.6,94,30.05,0.8,Calm,Calm,-,N/A,,Mist,0,2013-07-26 10:43:00
5:51 AM,62.6,62.6,100,30.06,0.2,Calm,Calm,-,N/A,Fog,Fog,0,2013-07-26 10:51:00
5:53 AM,63.0,62.1,97,30.06,0.2,Calm,Calm,-,N/A,Fog,Fog,0,2013-07-26 10:53:00
6:53 AM,63.0,63.0,100,30.06,0.2,Calm,Calm,-,N/A,Fog,Fog,0,2013-07-26 11:53:00
7:38 AM,66.2,66.2,100,30.07,0.5,Calm,Calm,-,N/A,Fog,Fog,0,2013-07-26 12:38:00
7:49 AM,66.2,66.2,100,30.07,1.8,Calm,Calm,-,N/A,,Overcast,0,2013-07-26 12:49:00
7:53 AM,66.9,66.0,97,30.06,2.5,Calm,Calm,-,N/A,,Mostly Cloudy,0,2013-07-26 12:53:00
8:02 AM,66.2,66.2,100,30.06,7.0,Calm,Calm,-,N/A,,Mostly Cloudy,0,2013-07-26 13:02:00
8:14 AM,68.0,66.2,94,30.06,10.0,Calm,Calm,-,N/A,,Scattered Clouds,0,2013-07-26 13:14:00
8:53 AM,73.0,66.9,81,30.06,10.0,Calm,Calm,-,N/A,,Clear,0,2013-07-26 13:53:00
9:53 AM,78.1,66.0,66,30.06,10.0,Calm,Calm,-,N/A,,Clear,0,2013-07-26 14:53:00
10:53 AM,80.1,64.9,60,30.07,10.0,SW,5.8,-,N/A,,Clear,230,2013-07-26 15:53:00
11:53 AM,82.0,66.9,60,30.06,10.0,Variable,4.6,-,N/A,,Clear,0,2013-07-26 16:53:00
12:53 PM,82.0,66.0,58,30.05,10.0,Calm,Calm,-,N/A,,Clear,0,2013-07-26 17:53:00
1:53 PM,82.0,66.9,60,30.04,10.0,Calm,Calm,-,N/A,,Clear,0,2013-07-26 18:53:00
2:53 PM,84.0,68.0,58,30.03,10.0,NNW,4.6,-,N/A,,Clear,340,2013-07-26 19:53:00
3:53 PM,82.9,68.0,60,30.02,10.0,North,5.8,-,N/A,,Clear,360,2013-07-26 20:53:00
4:53 PM,81.0,68.0,65,30.01,10.0,NNE,3.5,-,N/A,,Clear,20,2013-07-26 21:53:00
5:53 PM,80.1,66.0,62,29.99,10.0,Calm,Calm,-,N/A,,Clear,0,2013-07-26 22:53:00
6:53 PM,79.0,70.0,74,29.99,10.0,Calm,Calm,-,N/A,,Mostly Cloudy,0,2013-07-26 23:53:00
7:53 PM,75.9,70.0,82,29.98,10.0,Calm,Calm,-,N/A,,Clear,0,2013-07-27 00:53:00
8:53 PM,75.0,71.1,87,29.97,10.0,NNE,4.6,-,N/A,,Partly Cloudy,20,2013-07-27 01:53:00
9:53 PM,73.0,71.1,93,29.98,10.0,Calm,Calm,-,N/A,,Clear,0,2013-07-27 02:53:00
10:53 PM,73.9,71.1,91,30.00,10.0,Calm,Calm,-,N/A,,Partly Cloudy,0,2013-07-27 03:53:00
11:53 PM,73.0,71.1,93,30.00,9.0,Calm,Calm,-,N/A,,Mostly Cloudy,0,2013-07-27 04:53:00